This demonstration page uses our WeatherBlox Daily Observations layout. Learn more.

Left ArrowRight Arrow

Hourly Observations for February 21, 2020

Temp ( °F °C ) Dew Point ( °F °C ) Humidity (%) Winds ( mph kmh ) Pressure ( in mb ) Visibility ( mi km ) Precip ( " mm )
12:15 am 00:15 Cloudy 30 -1 16 -9 55 55 N 13 20 30.49 1033 10 16.0934 0 0
12:35 am 00:35 Cloudy 30 -1 16 -9 55 55 N 12 19 30.5 1033 10 16.0934 0 0
12:55 am 00:55 Cloudy 30 -1 16 -9 55 55 N 12 19 30.5 1033 10 16.0934 0 0
1:15 am 01:15 Mostly Cloudy 30 -1 14 -10 51 51 N 13 20 30.5 1033 10 16.0934 0 0
1:35 am 01:35 Partly Cloudy 28 -2 14 -10 55 55 N 10 17 30.51 1033 10 16.0934 0 0
1:55 am 01:55 Partly Cloudy 28 -2 14 -10 55 55 N 12 19 30.52 1033 10 16.0934 0 0
2:15 am 02:15 Mostly Cloudy 28 -2 14 -10 55 55 N 9 15 30.51 1033 10 16.0934 0 0
2:35 am 02:35 Partly Cloudy 27 -3 12 -11 54 54 N 12 19 30.51 1033 10 16.0934 0 0
2:55 am 02:55 Clear 27 -3 12 -11 54 54 N 9 15 30.52 1033 10 16.0934 0 0
3:15 am 03:15 Clear 27 -3 12 -11 54 54 N 10 17 30.52 1033 10 16.0934 0 0
3:35 am 03:35 Clear 27 -3 12 -11 54 54 N 8 13 30.52 1033 10 16.0934 0 0
3:55 am 03:55 Clear 25 -4 12 -11 59 59 N 7 11 30.52 1033 10 16.0934 0 0
4:15 am 04:15 Clear 25 -4 10 -12 54 54 N 12 19 30.52 1033 10 16.0934 0 0
4:35 am 04:35 Clear 23 -5 10 -12 58 58 N 8 13 30.53 1034 10 16.0934 0 0
4:55 am 04:55 Clear 23 -5 10 -12 58 58 N 12 19 30.53 1034 10 16.0934 0 0
5:15 am 05:15 Clear 23 -5 10 -12 58 58 N 8 13 30.54 1034 10 16.0934 0 0
5:35 am 05:35 Clear 23 -5 10 -12 58 58 N 9 15 30.55 1035 10 16.0934 0 0
5:55 am 05:55 Clear 23 -5 10 -12 58 58 N 6 9 30.56 1035 10 16.0934 0 0
6:15 am 06:15 Clear 21 -6 10 -12 63 63 N 8 13 30.56 1035 10 16.0934 0 0
6:35 am 06:35 Clear 21 -6 10 -12 63 63 N 7 11 30.56 1035 10 16.0934 0 0
6:55 am 06:55 Sunny 21 -6 10 -12 63 63 N 10 17 30.57 1035 10 16.0934 0 0
7:15 am 07:15 Sunny 21 -6 10 -12 63 63 N 7 11 30.58 1036 10 16.0934 0 0
7:35 am 07:35 Sunny 21 -6 10 -12 63 63 N 7 11 30.58 1036 10 16.0934 0 0
7:55 am 07:55 Sunny 23 -5 10 -12 58 58 N 12 19 30.59 1036 10 16.0934 0 0
8:15 am 08:15 Sunny 23 -5 12 -11 63 63 N 10 17 30.6 1036 10 16.0934 0 0
8:35 am 08:35 Sunny 25 -4 12 -11 59 59 N 13 20 30.61 1037 10 16.0934 0 0
8:55 am 08:55 Sunny 27 -3 12 -11 54 54 N 12 19 30.61 1036 10 16.0934 0 0
9:55 am 09:55 Sunny 27 -3 12 -11 54 54 NNW 14 22 30.61 1036 10 16.0934 0 0
10:15 am 10:15 Sunny 28 -2 12 -11 51 51 NNW 12 19 30.61 1036 10 16.0934 0 0
10:35 am 10:35 Sunny 28 -2 12 -11 51 51 NNW 10 17 30.61 1036 10 16.0934 0 0
10:55 am 10:55 Sunny 30 -1 12 -11 47 47 N 12 19 30.6 1036 10 16.0934 0 0
11:15 am 11:15 Sunny 30 -1 12 -11 47 47 NW 8 13 30.6 1036 10 16.0934 0 0
11:35 am 11:35 Sunny 30 -1 12 -11 47 47 N 13 20 30.6 1036 10 16.0934 0 0
11:55 am 11:55 Sunny 32 0 14 -10 47 47 N 10 17 30.6 1036 10 16.0934 0 0
12:15 pm 12:15 Sunny 32 0 12 -11 44 44 NNW 12 19 30.58 1036 10 16.0934 0 0
12:55 pm 12:55 Sunny 32 0 12 -11 44 44 NNW 12 19 30.57 1035 10 16.0934 0 0
1:15 pm 13:15 Sunny 34 1 12 -11 41 41 NNW 9 15 30.56 1035 10 16.0934 0 0
1:35 pm 13:35 Sunny 34 1 10 -12 38 38 N 6 9 30.55 1035 10 16.0934 0 0
1:55 pm 13:55 Sunny 34 1 12 -11 41 41 NNE 10 17 30.54 1034 10 16.0934 0 0
2:15 pm 14:15 Sunny 34 1 12 -11 41 41 NW 12 19 30.53 1034 10 16.0934 0 0
2:35 pm 14:35 Sunny 36 2 12 -11 38 38 NNW 8 13 30.53 1034 10 16.0934 0 0
2:55 pm 14:55 Sunny 36 2 12 -11 38 38 Calm 30.53 1034 10 16.0934 0 0
3:15 pm 15:15 Sunny 36 2 12 -11 38 38 N 7 11 30.52 1033 10 16.0934 0 0
3:35 pm 15:35 Sunny 36 2 12 -11 38 38 NNW 12 19 30.51 1033 10 16.0934 0 0
3:55 pm 15:55 Sunny 36 2 10 -12 35 35 NNW 3 6 30.51 1033 10 16.0934 0 0
4:15 pm 16:15 Sunny 36 2 10 -12 35 35 NNW 9 15 30.5 1033 10 16.0934 0 0
4:35 pm 16:35 Sunny 36 2 10 -12 35 35 WNW 6 9 30.5 1033 10 16.0934 0 0
4:55 pm 16:55 Sunny 36 2 10 -12 35 35 N 6 9 30.49 1032 10 16.0934 0 0
5:15 pm 17:15 Sunny 36 2 10 -12 35 35 W 3 6 30.49 1032 10 16.0934 0 0
5:35 pm 17:35 Sunny 36 2 10 -12 35 35 Calm 30.49 1032 10 16.0934 0 0
5:55 pm 17:55 Clear 36 2 10 -12 35 35 Calm 30.49 1032 10 16.0934 0 0
6:15 pm 18:15 Clear 34 1 10 -12 38 38 Calm 30.49 1033 10 16.0934 0 0
6:55 pm 18:55 Clear 32 0 10 -12 40 40 S 3 6 30.49 1033 10 16.0934 0 0
7:15 pm 19:15 Clear 32 0 10 -12 40 40 S 5 7 30.5 1033 10 16.0934 0 0
7:35 pm 19:35 Clear 30 -1 14 -10 51 51 Calm 30.49 1033 10 16.0934 0 0
7:55 pm 19:55 Clear 30 -1 12 -11 47 47 SSW 3 6 30.49 1033 10 16.0934 0 0
8:15 pm 20:15 Clear 28 -2 14 -10 55 55 WSW 5 7 30.5 1033 10 16.0934 0 0
8:35 pm 20:35 Clear 28 -2 14 -10 55 55 SW 5 7 30.49 1032 10 16.0934 0 0
9:15 pm 21:15 Clear 28 -2 14 -10 55 55 WSW 6 9 30.49 1032 10 16.0934 0 0
9:35 pm 21:35 Clear 27 -3 14 -10 59 59 WSW 5 7 30.49 1032 10 16.0934 0 0
9:55 pm 21:55 Clear 27 -3 16 -9 64 64 W 6 9 30.49 1032 10 16.0934 0 0
10:15 pm 22:15 Clear 27 -3 14 -10 59 59 WSW 5 7 30.49 1032 10 16.0934 0 0
10:35 pm 22:35 Clear 27 -3 14 -10 59 59 WSW 5 7 30.49 1032 10 16.0934 0 0
10:55 pm 22:55 Clear 28 -2 12 -11 51 51 SSW 5 7 30.48 1032 10 16.0934 0 0
11:15 pm 23:15 Clear 28 -2 10 -12 47 47 SW 6 9 30.48 1032 10 16.0934 0 0
11:35 pm 23:35 Clear 28 -2 12 -11 51 51 SSW 6 9 30.46 1031 10 16.0934 0 0
11:55 pm 23:55 Clear 28 -2 10 -12 47 47 SW 3 6 30.46 1031 10 16.0934 0 0

Powered by AerisWeather